[[{"header":{"parameterUnit":"m.s-1","parameterCategory":1,"la1":30.2991,"la2":30.254,"lo1":-89.0895,"lo2":-89.0444,"dy":0.0017,"dx":0.0017,"nx":28,"ny":28,"refTime":"2025-07-16T21:00:00:Z","depth":0,"parameterNumber":2,"parameterNumberName":"U-component_of_WINDS"},"data":[0,0,0,0,0,0,0,0,0,0,0,0,0,0,0,0,0,0,0,0,0,0,0,0,0,0,0,0,0,0,0,0,0,0,0,0,0,0,0,0,0,0,0,0,0,0,0,0,0,0,0,0,0,0,0,0,0,0,-1.477,-1.4774,0,-1.5098,-1.5102,-1.5106,-1.524,-1.524,-1.5239,-1.5238,-1.5576,-1.5586,-1.5595,0,0,0,0,0,0,0,0,0,0,0,0,0,-1.4264,-1.4273,-1.477,-1.4774,-1.4778,-1.5098,-1.5102,-1.5107,-1.5241,-1.524,-1.5239,-1.5238,-1.5573,-1.5585,-1.5596,0,0,0,0,0,0,0,0,0,0,0,0,0,-1.4527,-1.4275,-1.4769,-1.4884,-1.4897,-1.5097,-1.5103,-1.5108,-1.5241,-1.524,-1.5239,-1.5238,-1.5569,-1.5584,-1.5598,-1.5709,0,0,-1.5642,-1.5649,0,0,0,0,0,0,0,0,-1.4512,-1.4545,-1.4863,-1.4876,-1.4891,-1.5127,-1.5048,-1.531,-1.5241,-1.511,-1.5238,-1.5237,-1.5428,-1.5454,-1.5518,-1.5725,-1.574,-1.5644,-1.5652,-1.5659,-1.5663,0,0,0,0,0,0,0,-1.4494,-1.4532,-1.49,-1.4867,-1.4885,-1.492,-1.4956,-1.5098,-1.5271,-1.5122,-1.5132,-1.5169,-1.5436,-1.5504,-1.5527,-1.5745,-1.5643,-1.5656,-1.5665,-1.5671,-1.6064,-1.6066,0,0,0,0,0,0,-1.4456,-1.4516,-1.489,-1.491,-1.4695,-1.493,-1.497,-1.5053,-1.527,-1.5302,-1.517,-1.5174,-1.548,-1.551,-1.5539,-1.5687,-1.5658,-1.5672,-1.568,-1.6063,-1.6065,-1.6067,0,0,0,0,0,0,-1.4445,-1.4488,-1.4877,-1.4716,-1.4768,-1.494,-1.5031,-1.506,-1.5128,-1.5306,-1.5338,-1.5207,-1.548,-1.5519,-1.5667,-1.57,-1.5679,-1.5692,-1.606,-1.6063,-1.6066,-1.598,0,0,0,0,0,0,-1.4429,-1.4483,-1.4526,-1.4716,-1.4776,-1.4996,-1.5033,-1.5067,-1.5152,-1.5161,-1.535,-1.538,-1.5482,-1.5645,-1.5681,-1.572,-1.5703,-1.6058,-1.6062,-1.6065,-1.598,-1.5979,-1.5978,0,0,0,0,0,-1.4411,-1.4488,-1.4527,-1.4571,-1.4833,-1.4998,-1.5033,-1.5148,-1.5154,-1.52,-1.5315,-1.5374,-1.5691,-1.5658,-1.5701,-1.5744,-1.6057,-1.6061,-1.6064,-1.5981,-1.5979,-1.5978,0,0,0,0,0,0,-1.4297,-1.4515,-1.4561,-1.4701,-1.483,-1.502,-1.5081,-1.5142,-1.5272,-1.5275,-1.5413,-1.5454,-1.5591,-1.5683,-1.5643,-1.5866,-1.5879,-1.5891,-1.58,-1.5801,-1.5799,-1.5774,-1.5715,0,0,0,0,0,-1.4288,-1.4403,-1.4588,-1.4694,-1.4757,-1.4907,-1.4984,-1.5061,-1.5201,-1.5256,-1.5382,-1.5515,-1.5646,-1.5728,-1.5858,-1.5995,-1.604,-1.6046,-1.6045,-1.6043,-1.6052,-1.6135,-1.6141,-1.6079,-1.6079,-1.6079,0,0,-1.4271,-1.4405,-1.4469,-1.4675,-1.4784,-1.4901,-1.4952,-1.5073,-1.5163,-1.5275,-1.5422,-1.552,-1.5678,-1.5822,-1.5892,-1.5903,-1.608,-1.6048,-1.6045,-1.6056,-1.614,-1.6145,-1.615,-1.6082,-1.6082,-1.6081,0,0,-1.4301,-1.4412,-1.4515,-1.4623,-1.4788,-1.4888,-1.4913,-1.5095,-1.5164,-1.5314,-1.5402,-1.5511,-1.5731,-1.5841,-1.5926,-1.6002,-1.6062,-1.604,-1.6034,-1.6113,-1.6117,-1.6122,-1.6151,-1.6159,-1.6049,-1.6049,-1.6049,0,-1.4259,-1.4438,-1.4559,-1.4677,-1.4767,-1.4874,-1.498,-1.508,-1.5278,-1.5338,-1.5348,-1.5629,-1.5744,-1.5916,-1.5935,-1.5999,-1.6033,-1.6019,-1.6107,-1.6113,-1.612,-1.6148,-1.6159,-1.6045,-1.6045,-1.6046,-1.6046,0,-1.438,-1.4503,-1.4566,-1.4756,-1.4853,-1.4963,-1.5104,-1.5187,-1.5258,-1.5358,-1.5511,-1.5653,-1.5814,-1.5861,-1.593,-1.6045,-1.6047,-1.608,-1.6095,-1.612,-1.6149,-1.6161,-1.604,-1.6041,-1.6042,-1.6043,0,0,-1.4344,-1.4601,-1.4623,-1.4711,-1.4902,-1.5001,-1.5119,-1.5276,-1.5346,-1.5481,-1.5584,-1.577,-1.5803,-1.5899,-1.5983,-1.6052,-1.6105,-1.6078,-1.6084,-1.6079,-1.6243,-1.6216,-1.6227,-1.6147,-1.6149,-1.6151,-1.623,0,-1.44,-1.4613,-1.4728,-1.4894,-1.5011,-1.5117,-1.522,-1.5349,-1.5447,-1.5562,-1.567,-1.58,-1.5833,-1.5892,-1.5965,-1.6083,-1.614,-1.6079,-1.6246,-1.625,-1.6202,-1.6242,-1.6215,-1.6282,-1.6242,-1.6244,-1.6245,0,-1.4492,-1.4626,-1.4803,-1.4984,-1.5038,-1.5128,-1.5284,-1.5392,-1.5542,-1.5609,-1.5717,-1.5801,-1.5931,-1.5937,-1.612,-1.6076,-1.6152,-1.6221,-1.6226,-1.6246,-1.6249,-1.6264,-1.6306,-1.6315,-1.6265,-1.6263,-1.6262,0,-1.445,-1.4674,-1.4811,-1.4883,-1.5097,-1.5158,-1.525,-1.54,-1.5489,-1.5625,-1.5685,-1.5834,-1.5917,-1.6032,-1.6154,-1.6147,-1.6327,-1.6342,-1.6387,-1.6384,-1.6419,-1.6415,-1.6474,-1.6467,-1.6467,-1.6466,-1.6466,0,-1.4501,-1.4605,-1.4795,-1.4878,-1.5,-1.5132,-1.525,-1.5351,-1.5483,-1.559,-1.5691,-1.5789,-1.5945,-1.6063,-1.616,-1.6299,-1.6335,-1.6394,-1.6418,-1.6385,-1.6377,-1.6436,-1.6435,-1.6469,-1.6469,-1.6468,-1.6468,0,-1.4473,-1.4604,-1.476,-1.495,-1.5001,-1.5082,-1.5247,-1.5333,-1.5437,-1.5571,-1.561,-1.5773,-1.5919,-1.6052,-1.6245,-1.6311,-1.6451,-1.6482,-1.64,-1.6413,-1.6451,-1.6446,-1.6549,-1.657,-1.6547,-1.6547,-1.6547,0,-1.4497,-1.458,-1.478,-1.4859,-1.4949,-1.5074,-1.5166,-1.53,-1.5392,-1.5572,-1.5637,-1.5789,-1.5918,-1.6146,-1.6283,-1.6432,-1.6468,-1.6494,-1.6491,-1.6456,-1.647,-1.6463,-1.6473,-1.6492,-1.6491,-1.6491,-1.6491,0,-1.4525,-1.4587,-1.4714,-1.4865,-1.4971,-1.5097,-1.5226,-1.5285,-1.5444,-1.5542,-1.5692,-1.5792,-1.599,-1.6141,-1.6306,-1.6404,-1.6475,-1.6491,-1.6509,-1.6476,-1.6425,-1.6455,-1.6395,-1.6488,-1.6488,-1.6488,-1.6488,-1.6488,-1.4525,-1.4605,-1.4759,-1.4899,-1.501,-1.5129,-1.5221,-1.5337,-1.5463,-1.5635,-1.5707,-1.5859,-1.6012,-1.6241,-1.6338,-1.6461,-1.6475,-1.6501,-1.6508,-1.6513,-1.6507,-1.6405,-1.6491,-1.6491,-1.6492,-1.6492,-1.6492,0,-1.456,-1.4665,-1.4792,-1.497,-1.508,-1.5137,-1.5284,-1.5373,-1.5505,-1.5641,-1.5766,-1.594,-1.6088,-1.6237,-1.6394,-1.6463,-1.65,-1.65,-1.6496,-1.6518,-1.6484,-1.6453,-1.6468,-1.6468,-1.6468,-1.6468,-1.6468,-1.6468,-1.4591,-1.473,-1.481,-1.5007,-1.5112,-1.5262,-1.5341,-1.5452,-1.5561,-1.575,-1.5874,-1.597,-1.6113,-1.6281,-1.642,-1.6461,-1.6514,-1.6505,-1.6554,-1.652,-1.652,-1.6521,-1.6492,-1.6515,-1.6515,-1.6579,-1.6579,-1.658]},{"header":{"parameterUnit":"m.s-1","parameterCategory":1,"la1":30.2991,"la2":30.254,"lo1":-89.0895,"lo2":-89.0444,"dy":0.0017,"dx":0.0017,"nx":28,"ny":28,"refTime":"2025-07-16T21:00:00:Z","depth":0,"parameterNumber":3,"parameterNumberName":"V-component_of_WINDS"},"data":[0,0,0,0,0,0,0,0,0,0,0,0,0,0,0,0,0,0,0,0,0,0,0,0,0,0,0,0,0,0,0,0,0,0,0,0,0,0,0,0,0,0,0,0,0,0,0,0,0,0,0,0,0,0,0,0,0,0,-2.0567,-2.0567,0,-2.0573,-2.0573,-2.0573,-2.0524,-2.0523,-2.0522,-2.052,-2.0524,-2.0525,-2.0526,0,0,0,0,0,0,0,0,0,0,0,0,0,-2.0512,-2.0514,-2.0567,-2.0567,-2.0567,-2.0573,-2.0573,-2.0573,-2.0525,-2.0523,-2.0521,-2.052,-2.0523,-2.0525,-2.0526,0,0,0,0,0,0,0,0,0,0,0,0,0,-2.0529,-2.0514,-2.0567,-2.0544,-2.0542,-2.0573,-2.0573,-2.0573,-2.0525,-2.0523,-2.0521,-2.0519,-2.0523,-2.0525,-2.0527,-2.0579,0,0,-2.0533,-2.0534,0,0,0,0,0,0,0,0,-2.0528,-2.0531,-2.0547,-2.0546,-2.0543,-2.0546,-2.0555,-2.0575,-2.0525,-2.0531,-2.052,-2.0518,-2.0533,-2.0534,-2.0539,-2.0579,-2.0579,-2.0533,-2.0534,-2.0535,-2.0536,0,0,0,0,0,0,0,-2.0527,-2.053,-2.0569,-2.0547,-2.0545,-2.0533,-2.0533,-2.0558,-2.0543,-2.0531,-2.0527,-2.0529,-2.0531,-2.0537,-2.0539,-2.0579,-2.0533,-2.0535,-2.0536,-2.0537,-2.0664,-2.0666,0,0,0,0,0,0,-2.0529,-2.053,-2.0569,-2.0569,-2.0531,-2.0535,-2.0535,-2.0547,-2.0543,-2.054,-2.053,-2.0526,-2.0535,-2.0536,-2.0539,-2.06,-2.0535,-2.0537,-2.0538,-2.0662,-2.0665,-2.0667,0,0,0,0,0,0,-2.0528,-2.0533,-2.0569,-2.0549,-2.0552,-2.0538,-2.0552,-2.0548,-2.0554,-2.0542,-2.0539,-2.054,-2.0533,-2.0536,-2.057,-2.06,-2.0538,-2.054,-2.0659,-2.0663,-2.0666,-2.0724,0,0,0,0,0,0,-2.0527,-2.0533,-2.0553,-2.055,-2.0554,-2.0601,-2.0554,-2.055,-2.0558,-2.0553,-2.055,-2.0548,-2.0532,-2.0567,-2.0572,-2.0601,-2.0541,-2.0657,-2.0661,-2.0665,-2.072,-2.0729,-2.0737,0,0,0,0,0,-2.0525,-2.0569,-2.0555,-2.056,-2.0579,-2.0602,-2.0605,-2.0586,-2.0561,-2.0581,-2.0573,-2.0548,-2.0596,-2.0571,-2.0576,-2.0607,-2.0655,-2.066,-2.0664,-2.0716,-2.0727,-2.0737,0,0,0,0,0,0,-2.0575,-2.0568,-2.0552,-2.0596,-2.06,-2.0594,-2.0619,-2.0599,-2.061,-2.0604,-2.058,-2.058,-2.0618,-2.0616,-2.0588,-2.0658,-2.0621,-2.0627,-2.0658,-2.0669,-2.0678,-2.0678,-2.0543,0,0,0,0,0,-2.0592,-2.0612,-2.0604,-2.0644,-2.0647,-2.0633,-2.0642,-2.0628,-2.0631,-2.0632,-2.0627,-2.0631,-2.0647,-2.0658,-2.0671,-2.0719,-2.0718,-2.0743,-2.0752,-2.0759,-2.0764,-2.079,-2.0801,-2.0683,-2.0683,-2.0683,0,0,-2.0625,-2.0624,-2.0638,-2.0654,-2.0656,-2.0677,-2.0635,-2.0659,-2.0675,-2.0636,-2.0668,-2.0665,-2.0667,-2.0708,-2.0726,-2.0707,-2.0797,-2.0765,-2.0771,-2.0773,-2.0796,-2.0808,-2.0818,-2.0686,-2.0686,-2.0685,0,0,-2.0697,-2.0698,-2.0732,-2.0735,-2.0739,-2.0729,-2.0737,-2.0735,-2.0731,-2.0764,-2.0735,-2.0753,-2.0781,-2.0784,-2.0789,-2.0864,-2.0842,-2.0869,-2.0916,-2.0941,-2.0951,-2.0959,-2.0986,-2.0996,-2.0875,-2.0875,-2.0875,0,-2.0738,-2.077,-2.0751,-2.0778,-2.0786,-2.0753,-2.0787,-2.0791,-2.0798,-2.0804,-2.0783,-2.0818,-2.0817,-2.086,-2.0878,-2.0883,-2.0892,-2.087,-2.0951,-2.0959,-2.0966,-2.0992,-2.1002,-2.0879,-2.0878,-2.0878,-2.0877,0,-2.0821,-2.0844,-2.087,-2.088,-2.0891,-2.0921,-2.0906,-2.0919,-2.0904,-2.0897,-2.0931,-2.0929,-2.0942,-2.0951,-2.0936,-2.0991,-2.098,-2.0955,-2.0918,-2.0981,-2.1005,-2.1015,-2.0883,-2.0882,-2.0881,-2.088,0,0,-2.0924,-2.0924,-2.0934,-2.0939,-2.0941,-2.0958,-2.0987,-2.1001,-2.1014,-2.102,-2.1044,-2.1068,-2.1046,-2.1052,-2.1037,-2.106,-2.112,-2.1032,-2.1032,-2.1049,-2.1182,-2.1201,-2.1213,-2.1105,-2.1107,-2.1109,-2.1182,0,-2.0995,-2.1045,-2.1029,-2.108,-2.1101,-2.1071,-2.1096,-2.11,-2.1094,-2.1111,-2.1103,-2.1122,-2.1091,-2.1095,-2.1115,-2.1109,-2.1147,-2.1103,-2.1127,-2.1128,-2.1128,-2.1225,-2.1245,-2.1314,-2.1191,-2.1193,-2.1194,0,-2.1084,-2.1096,-2.1149,-2.115,-2.1158,-2.1181,-2.1193,-2.121,-2.1214,-2.1208,-2.1216,-2.1196,-2.1224,-2.1187,-2.1225,-2.1196,-2.1204,-2.1203,-2.1205,-2.1207,-2.1165,-2.123,-2.1336,-2.1347,-2.1208,-2.1207,-2.1206,0,-2.1155,-2.1184,-2.122,-2.1225,-2.1226,-2.1243,-2.1244,-2.1246,-2.1256,-2.1267,-2.1273,-2.1286,-2.1294,-2.1304,-2.1289,-2.1263,-2.133,-2.1291,-2.1326,-2.1326,-2.1341,-2.134,-2.1451,-2.1346,-2.1346,-2.1346,-2.1346,0,-2.1236,-2.127,-2.1252,-2.1274,-2.1311,-2.1293,-2.133,-2.1327,-2.133,-2.1351,-2.1325,-2.1345,-2.1323,-2.1341,-2.1329,-2.1363,-2.1366,-2.1362,-2.1359,-2.1365,-2.1365,-2.137,-2.1365,-2.1348,-2.1348,-2.1347,-2.1347,0,-2.1321,-2.131,-2.1348,-2.1346,-2.1347,-2.1374,-2.1373,-2.1393,-2.1386,-2.1413,-2.1418,-2.1406,-2.1426,-2.1412,-2.1431,-2.1423,-2.1468,-2.1457,-2.1467,-2.1464,-2.1501,-2.1498,-2.1618,-2.1633,-2.1519,-2.152,-2.1521,0,-2.1373,-2.1399,-2.1401,-2.1414,-2.1417,-2.1438,-2.1449,-2.1431,-2.1443,-2.1451,-2.147,-2.1488,-2.1502,-2.1535,-2.1528,-2.1542,-2.1532,-2.1573,-2.1534,-2.154,-2.1534,-2.1533,-2.1535,-2.1581,-2.1583,-2.1584,-2.1585,0,-2.1468,-2.1462,-2.1479,-2.1495,-2.1509,-2.1521,-2.153,-2.1541,-2.1524,-2.1539,-2.156,-2.157,-2.1591,-2.1609,-2.1622,-2.1622,-2.1601,-2.1597,-2.1606,-2.1613,-2.1618,-2.1617,-2.1489,-2.1595,-2.1594,-2.1593,-2.1592,-2.1592,-2.1539,-2.1561,-2.1566,-2.1586,-2.1592,-2.1601,-2.1621,-2.1617,-2.1635,-2.1651,-2.1639,-2.1664,-2.1668,-2.1683,-2.1686,-2.1705,-2.1688,-2.1701,-2.1704,-2.1708,-2.1713,-2.1615,-2.1707,-2.1707,-2.1706,-2.1706,-2.1706,0,-2.1632,-2.1635,-2.1654,-2.1669,-2.1685,-2.1665,-2.1674,-2.1689,-2.1712,-2.1718,-2.1732,-2.1757,-2.1775,-2.177,-2.1786,-2.1802,-2.1793,-2.1807,-2.1805,-2.1806,-2.1727,-2.1718,-2.1814,-2.1814,-2.1814,-2.1814,-2.1814,-2.1814,-2.1683,-2.172,-2.1715,-2.1754,-2.1756,-2.1782,-2.1789,-2.1798,-2.1803,-2.1832,-2.1847,-2.1844,-2.1846,-2.1862,-2.1878,-2.1876,-2.1883,-2.1901,-2.1895,-2.1822,-2.1811,-2.1801,-2.1793,-2.1902,-2.1902,-2.1972,-2.1973,-2.1974]}]]